DW5861 Weather Reports


Display with metric or nautical units.
time (UTC)temp
F
wind
direction
speed
MPH
gust
MPH
rain 1hr
in
rain 24hr
in
rain mn
in
humidity
%
barometer
mb
20260505020004 72 179 3.0 8.0 0.00 0.00 0.00 74 1009.4
20260505015504 72 178 3.0 9.0 0.00 0.00 0.00 74 1009.4
20260505015004 72 174 3.0 9.0 0.00 0.00 0.00 73 1009.2
20260505014504 72 168 3.0 8.0 0.00 0.00 0.00 73 1009.2
20260505014004 73 164 2.0 8.0 0.00 0.00 0.00 72 1009.3
20260505013525 73 159 2.0 7.0 0.00 0.00 0.00 72 1009.3
20260505013007 73 168 2.0 7.0 0.00 0.00 0.00 72 1009.3
20260505012504 73 175 3.0 7.0 0.00 0.00 0.00 71 1009.2
20260505012024 74 172 3.0 7.0 0.00 0.00 0.00 71 1009.1
20260505011504 74 168 3.0 9.0 0.00 0.00 0.00 70 1008.9
20260505011025 74 167 3.0 9.0 0.00 0.00 0.00 70 1009.0
20260505010504 74 169 2.0 7.0 0.00 0.00 0.00 70 1008.9
20260505010004 75 163 2.0 7.0 0.00 0.00 0.00 69 1008.9
20260505005504 75 154 2.0 7.0 0.00 0.00 0.00 69 1008.9
20260505005025 75 159 2.0 7.0 0.00 0.00 0.00 68 1008.8
20260505004504 75 179 2.0 4.0 0.00 0.00 0.00 68 1009.0
20260505004004 76 176 3.0 6.0 0.00 0.00 0.00 67 1009.0
20260505003504 76 174 3.0 6.0 0.00 0.00 0.00 67 1009.1
20260505003004 76 180 2.0 6.0 0.00 0.00 0.00 66 1009.2
20260505002504 76 188 2.0 5.0 0.00 0.00 0.00 66 1009.1
20260505002004 77 185 2.0 5.0 0.00 0.00 0.00 65 1009.2
20260505001504 77 187 3.0 7.0 0.00 0.00 0.00 65 1009.2
20260505001004 77 187 3.0 8.0 0.00 0.00 0.00 65 1009.3
20260505000525 77 181 3.0 8.0 0.00 0.00 0.00 64 1009.2
20260505000004 78 180 3.0 8.0 0.00 0.00 0.00 63 1009.5
20260504235504 78 187 3.0 7.0 0.00 0.00 0.00 63 1009.4
20260504235004 78 192 3.0 7.0 0.00 0.00 0.00 62 1009.4
20260504234504 78 180 3.0 7.0 0.00 0.00 0.00 61 1009.4
20260504234004 79 169 3.0 8.0 0.00 0.00 0.00 61 1009.3
20260504233503 79 171 3.0 8.0 0.00 0.00 0.00 60 1009.4
20260504233025 79 185 3.0 7.0 0.00 0.00 0.00 61 1009.5
20260504232504 79 188 3.0 7.0 0.00 0.00 0.00 61 1009.4
20260504232025 80 178 3.0 6.0 0.00 0.00 0.00 59 1009.5
20260504231525 80 174 3.0 6.0 0.00 0.00 0.00 59 1009.7
20260504231004 80 173 4.0 9.0 0.00 0.00 0.00 59 1009.7
20260504230525 80 169 4.0 9.0 0.00 0.00 0.00 58 1009.8
20260504230004 80 163 4.0 12.0 0.00 0.00 0.00 58 1009.7
20260504225504 80 174 3.0 12.0 0.00 0.00 0.00 57 1009.6
20260504225004 80 168 4.0 10.0 0.00 0.00 0.00 57 1009.6
20260504224504 81 161 5.0 11.0 0.00 0.00 0.00 55 1009.8
20260504224025 81 160 4.0 11.0 0.00 0.00 0.00 55 1009.8
20260504223504 82 162 3.0 8.0 0.00 0.00 0.00 55 1009.9
20260504223025 82 171 3.0 9.0 0.00 0.00 0.00 55 1009.9
20260504222525 82 165 4.0 11.0 0.00 0.00 0.00 55 1009.9
20260504222025 82 167 4.0 11.0 0.00 0.00 0.00 54 1010.1
20260504221504 82 182 3.0 9.0 0.00 0.00 0.00 54 1010.2
20260504221007 82 181 3.0 10.0 0.00 0.00 0.00 53 1010.3
20260504220504 82 178 3.0 10.0 0.00 0.00 0.00 52 1010.3
20260504220024 82 200 3.0 8.0 0.00 0.00 0.00 53 1010.3
20260504215505 83 206 3.0 8.0 0.00 0.00 0.00 52 1010.3
20260504215004 83 191 4.0 10.0 0.00 0.00 0.00 51 1010.4
20260504214504 83 179 4.0 10.0 0.00 0.00 0.00 52 1010.3
20260504214025 84 180 5.0 10.0 0.00 0.00 0.00 50 1010.5
20260504213504 84 172 4.0 10.0 0.00 0.00 0.00 48 1010.4
20260504213003 85 171 3.0 9.0 0.00 0.00 0.00 48 1010.4
20260504212525 85 182 4.0 9.0 0.00 0.00 0.00 50 1010.5
20260504212004 84 181 4.0 9.0 0.00 0.00 0.00 47 1010.6
20260504211504 84 186 4.0 11.0 0.00 0.00 0.00 47 1010.9
20260504211003 84 187 4.0 11.0 0.00 0.00 0.00 48 1011.0
20260504210504 84 184 3.0 9.0 0.00 0.00 0.00 48 1011.1
20260504210004 84 178 4.0 10.0 0.00 0.00 0.00 48 1011.3
20260504205524 85 185 4.0 10.0 0.00 0.00 0.00 48 1011.3
20260504205004 85 180 3.0 9.0 0.00 0.00 0.00 48 1011.2
20260504204504 85 169 4.0 8.0 0.00 0.00 0.00 48 1011.3
20260504204003 84 170 4.0 10.0 0.00 0.00 0.00 47 1011.4
20260504203503 84 175 4.0 10.0 0.00 0.00 0.00 48 1011.4
20260504203003 84 187 4.0 9.0 0.00 0.00 0.00 46 1011.6
20260504202524 85 200 3.0 8.0 0.00 0.00 0.00 47 1011.6
20260504202004 84 190 3.0 10.0 0.00 0.00 0.00 47 1011.8
20260504201504 84 196 3.0 10.0 0.00 0.00 0.00 47 1012.1
20260504201004 84 208 3.0 7.0 0.00 0.00 0.00 47 1012.2
20260504200504 85 195 4.0 7.0 0.00 0.00 0.00 46 1012.2
20260504200004 84 196 5.0 11.0 0.00 0.00 0.00 45 1012.1
20260504195504 84 181 5.0 11.0 0.00 0.00 0.00 45 1012.3
20260504195004 84 167 4.0 10.0 0.00 0.00 0.00 45 1012.4
20260504194504 85 176 4.0 7.0 0.00 0.00 0.00 45 1012.4
20260504194004 84 187 4.0 8.0 0.00 0.00 0.00 47 1012.4
20260504193525 84 189 4.0 9.0 0.00 0.00 0.00 45 1012.5
20260504193004 84 177 4.0 9.0 0.00 0.00 0.00 46 1012.7
20260504192504 84 177 4.0 9.0 0.00 0.00 0.00 43 1012.8
20260504192004 84 177 4.0 8.0 0.00 0.00 0.00 43 1012.7
20260504191504 84 170 3.0 8.0 0.00 0.00 0.00 45 1012.7
20260504191025 85 191 3.0 8.0 0.00 0.00 0.00 45 1012.9
20260504190504 83 182 3.0 9.0 0.00 0.00 0.00 43 1013.1
20260504190004 84 159 3.0 9.0 0.00 0.00 0.00 42 1013.1
20260504185504 84 175 4.0 9.0 0.00 0.00 0.00 41 1013.2
20260504185004 84 174 4.0 11.0 0.00 0.00 0.00 39 1013.2
20260504184504 84 160 4.0 11.0 0.00 0.00 0.00 40 1013.4
20260504184004 84 163 3.0 10.0 0.00 0.00 0.00 41 1013.4
20260504183503 84 178 4.0 8.0 0.00 0.00 0.00 41 1013.5
20260504183003 83 193 3.0 6.0 0.00 0.00 0.00 44 1013.5
20260504182503 82 179 3.0 10.0 0.00 0.00 0.00 42 1013.6
20260504182003 81 175 4.0 10.0 0.00 0.00 0.00 43 1013.4
20260504181503 82 176 4.0 11.0 0.00 0.00 0.00 40 1013.7
20260504181024 83 183 4.0 11.0 0.00 0.00 0.00 45 1013.9
20260504180504 82 197 4.0 12.0 0.00 0.00 0.00 42 1013.9
20260504180004 81 188 4.0 12.0 0.00 0.00 0.00 47 1014.1
20260504175503 81 183 4.0 10.0 0.00 0.00 0.00 42 1014.4
20260504175024 82 191 3.0 8.0 0.00 0.00 0.00 44 1014.5
20260504174524 81 202 3.0 8.0 0.00 0.00 0.00 46 1014.3
20260504174024 81 206 3.0 9.0 0.00 0.00 0.00 46 1014.4
20260504173503 81 186 4.0 9.0 0.00 0.00 0.00 44 1014.4
20260504173003 81 179 4.0 8.0 0.00 0.00 0.00 47 1014.5
20260504172524 80 176 3.0 8.0 0.00 0.00 0.00 46 1014.5
20260504172004 81 174 4.0 9.0 0.00 0.00 0.00 47 1014.6
20260504171504 81 178 4.0 9.0 0.00 0.00 0.00 47 1014.7
20260504171003 80 180 3.0 7.0 0.00 0.00 0.00 47 1014.7
20260504170531 80 174 3.0 11.0 0.00 0.00 0.00 46 1014.9
20260504151006 74 184 4.0 11.0 0.00 0.00 0.00 59 1015.6
20260504150524 74 187 3.0 8.0 0.00 0.00 0.00 61 1015.7
20260504141003 68 183 3.0 6.0 0.00 0.00 0.00 72 1016.1
20260504140524 67 189 2.0 5.0 0.00 0.00 0.00 75 1016.1
20260504130503 57 183 1.0 4.0 0.00 0.00 0.00 90 1015.9
20260504110525 52 166 0.0 1.0 0.00 0.00 0.00 90 1015.5
20260504100525 53 202 0.0 1.0 0.00 0.00 0.00 90 1015.9
20260504082004 54 186 1.0 2.0 0.00 0.00 0.00 88 1016.0
20260504081504 54 191 1.0 2.0 0.00 0.00 0.00 88 1016.1
20260504081004 54 203 1.0 2.0 0.00 0.00 0.00 88 1016.1
20260504080504 54 185 1.0 2.0 0.00 0.00 0.00 88 1016.1
20260504050504 59 185 0.0 2.0 0.00 0.00 0.00 81 1017.4
20260504050025 59 193 0.0 2.0 0.00 0.00 0.00 81 1017.4
20260504045525 59 185 1.0 2.0 0.00 0.00 0.00 82 1017.4
20260504045004 59 174 1.0 3.0 0.00 0.00 0.00 82 1017.5
20260504044525 59 168 1.0 3.0 0.00 0.00 0.00 82 1017.4
20260504044004 59 176 1.0 2.0 0.00 0.00 0.00 82 1017.5
20260504043504 59 193 1.0 2.0 0.00 0.00 0.00 81 1017.6
20260504043025 60 188 1.0 2.0 0.00 0.00 0.00 81 1017.7
20260504042525 60 196 1.0 2.0 0.00 0.00 0.00 81 1017.7
20260504042004 60 203 1.0 2.0 0.00 0.00 0.00 82 1017.7
20260504041504 60 199 1.0 2.0 0.00 0.00 0.00 82 1017.6
20260504041004 60 189 1.0 2.0 0.00 0.00 0.00 81 1017.6
20260504040504 60 181 1.0 2.0 0.00 0.00 0.00 81 1017.5
20260504040025 60 186 1.0 2.0 0.00 0.00 0.00 81 1017.5
20260504035525 60 195 1.0 2.0 0.00 0.00 0.00 81 1017.6
20260504035004 61 191 1.0 2.0 0.00 0.00 0.00 82 1017.6
20260504034504 61 181 1.0 2.0 0.00 0.00 0.00 82 1017.4
20260504034004 60 186 1.0 2.0 0.00 0.00 0.00 81 1017.5
20260504033504 60 200 1.0 3.0 0.00 0.00 0.00 82 1017.6
20260504033025 60 195 1.0 3.0 0.00 0.00 0.00 83 1017.5
20260504032532 60 187 1.0 2.0 0.00 0.00 0.00 83 1017.5
20260504032004 60 199 1.0 2.0 0.00 0.00 0.00 83 1017.4
20260504031504 60 201 1.0 2.0 0.00 0.00 0.00 84 1017.4
20260504031004 60 194 1.0 3.0 0.00 0.00 0.00 84 1017.4
20260504030504 61 185 1.0 3.0 0.00 0.00 0.00 85 1017.3
20260504030004 61 161 1.0 2.0 0.00 0.00 0.00 84 1017.2
20260504025504 61 143 0.0 2.0 0.00 0.00 0.00 84 1017.2
20260504025004 61 114 0.0 1.0 0.00 0.00 0.00 83 1017.2
20260504024525 62 129 0.0 1.0 0.00 0.00 0.00 82 1017.2
20260504024004 62 155 0.0 1.0 0.00 0.00 0.00 82 1017.3
20260504023504 62 151 0.0 1.0 0.00 0.00 0.00 81 1017.3
20260504023025 63 190 0.0 1.0 0.00 0.00 0.00 81 1017.2
20260504022525 63 294 0.0 1.0 0.00 0.00 0.00 80 1017.2
20260504022004 63 329 0.0 1.0 0.00 0.00 0.00 80 1017.1
20260504021525 64 0 0.0 0.0 0.00 0.00 0.00 80 1017.1
20260504021004 64 153 0.0 1.0 0.00 0.00 0.00 79 1017.0
20260504020504 64 148 0.0 1.0 0.00 0.00 0.00 78 1016.9